Sterling, IL

1:26 AM CST on November 22, 2019 (GMT -0600)
Whiteside County-Bittorf

Weather History for KSQI - July, 2019

Change the Weather History Date:

Friday, July 12, 2019

  Actual Average Record
Temperature  
Mean Temperature 74 °F -  
Max Temperature 87 °F 81 °F 91 °F (2012)
Min Temperature 61 °F 60 °F 53 °F (2013)
Cooling Degree Days 8    
Growing Degree Days 24 (Base 50)    
Moisture  
Dew Point 63 °F    
Average Humidity 69    
Maximum Humidity 100    
Minimum Humidity 41    
Precipitation  
Precipitation 0.00 in - - ()
Sea Level Pressure  
Sea Level Pressure 29.60 in    
Wind  
Wind Speed 2 mph (WSW)    
Max Wind Speed 8 mph    
Max Gust Speed -    
Visibility 10 miles    
Events      
Averages and records for this station are not official NWS values.
T = Trace of Precipitation, MM = Missing Value Source: NWS Daily Summary

Daily Weather History Graph

Daily Weather History Graph

Search for Another Location

Airport or City:

Astronomy

Jul. 12, 2019 Rise Set
Actual Time 5:34 AM CDT 8:33 PM CDT
Civil Twilight 5:01 AM CDT 9:06 PM CDT
Nautical Twilight 4:18 AM CDT 9:49 PM CDT
Astronomical Twilight 3:29 AM CDT 10:38 PM CDT
Moon 4:51 PM CDT (7/12) 2:20 AM CDT (7/12)
Length of Visible Light 16h 05m
Length of Day
14h 58m
Waxing Gibbous, 83% of the Moon is Illuminated
Jul 12
Waxing Gibbous
Jul 16
Full
Jul 24
Last Quarter
Jul 31
New
Aug 7
First Quarter

Hourly Weather History & Observations

Time (CDT) Temp. Heat Index Dew Point Humidity Pressure Visibility Wind Dir Wind Speed Gust Speed Precip Events Conditions
12:56 AM 64.9 °F - 63.0 °F 93% 29.57 in 10.0 mi Calm Calm - N/A   Clear
1:56 AM 64.0 °F - 62.1 °F 93% 29.58 in 10.0 mi Calm Calm - N/A   Clear
2:56 AM 63.0 °F - 61.0 °F 93% 29.57 in 10.0 mi Calm Calm - N/A   Clear
3:56 AM 62.1 °F - 61.0 °F 96% 29.58 in 10.0 mi Calm Calm - N/A   Clear
4:56 AM 61.0 °F - 61.0 °F 100% 29.59 in 10.0 mi Calm Calm - N/A   Clear
5:56 AM 61.0 °F - 61.0 °F 100% 29.60 in 8.0 mi Calm Calm - N/A   Clear
6:56 AM 64.9 °F - 64.0 °F 97% 29.61 in 9.0 mi Calm Calm - N/A   Clear
7:56 AM 70.0 °F - 64.9 °F 84% 29.62 in 10.0 mi Calm Calm - N/A   Clear
8:56 AM 73.0 °F - 64.9 °F 76% 29.62 in 10.0 mi Variable 5.8 mph - N/A   Clear
9:56 AM 77.0 °F - 64.9 °F 66% 29.61 in 10.0 mi WSW 8.1 mph - N/A   Clear
10:56 AM 80.1 °F 81.7 °F 64.0 °F 58% 29.61 in 10.0 mi Variable 5.8 mph - N/A   Clear
11:56 AM 81.0 °F 82.2 °F 63.0 °F 54% 29.60 in 10.0 mi WSW 5.8 mph - N/A   Clear
12:56 PM 84.0 °F 84.9 °F 63.0 °F 49% 29.59 in 10.0 mi Variable 4.6 mph - N/A   Clear
1:56 PM 84.0 °F 84.4 °F 61.0 °F 46% 29.58 in 10.0 mi Calm Calm - N/A   Clear
2:56 PM 86.0 °F 85.7 °F 60.1 °F 41% 29.57 in 10.0 mi Variable 4.6 mph - N/A   Clear
3:56 PM 86.0 °F 86.3 °F 62.1 °F 44% 29.57 in 10.0 mi SW 5.8 mph - N/A   Clear
4:56 PM 86.0 °F 86.3 °F 62.1 °F 44% 29.55 in 10.0 mi Calm Calm - N/A   Clear
5:14 PM 86.0 °F 86.6 °F 62.6 °F 45% 29.94 in 10.0 mi West 6.9 mph - N/A   Partly Cloudy
5:56 PM 86.0 °F 86.3 °F 62.1 °F 44% 29.53 in 10.0 mi WSW 6.9 mph - N/A   Partly Cloudy
6:25 PM 84.2 °F 85.0 °F 62.6 °F 48% 29.92 in 10.0 mi WSW 6.9 mph - N/A   Mostly Cloudy
6:56 PM 84.0 °F 84.4 °F 61.0 °F 46% 29.52 in 10.0 mi WSW 5.8 mph - N/A   Overcast
7:56 PM 80.1 °F 81.7 °F 64.0 °F 58% 29.53 in 10.0 mi WSW 5.8 mph - N/A   Overcast
8:56 PM 75.0 °F - 64.9 °F 71% 29.54 in 10.0 mi WSW 3.5 mph - N/A   Overcast
9:56 PM 71.1 °F - 66.0 °F 84% 29.57 in 10.0 mi Calm Calm - N/A   Overcast
10:56 PM 69.1 °F - 64.9 °F 87% 29.56 in 10.0 mi Calm Calm - N/A   Overcast
11:56 PM 68.0 °F - 64.9 °F 90% 29.56 in 10.0 mi Calm Calm - N/A   Overcast